{"data":{"norad_id":55311,"epoch":"2026-09-20T22:00:03.000096Z","epoch_age_seconds":60679,"freshness":"FRESH","line1":"1 55311U 23010AU  26263.91670139  .00057469  00000+0  37163-2 0  9998","line2":"2 55311  70.0017 232.2134 0001116 228.1839 203.2893 15.07880840  5767","mean_motion":15.0788084,"eccentricity":0.0001116,"inclination_deg":70.0017,"raan_deg":232.2134,"arg_perigee_deg":228.1839,"mean_anomaly_deg":203.2893,"bstar":0.0037163,"rev_number":576,"period_min":95.498262316272,"perigee_km":541.90434852297,"apogee_km":543.44907414334,"semimajor_km":6920.8137113332,"source":"CELESTRAK","updated_at":"2026-09-21T09:00:33.174360Z"}}